Cloud_Cover
42 8 5 6 6 5 56 4 5 4 0 4 0 1 5 0 2 3 2 5 0 6 26 27 56 27 17 100 53 5 5 1 0 84 1 10 14 20 10 12 16 19 12 12 26 16 12 7 10
5 5 5 5 8 5 5 5 5 2 4 0 0 0 0 0 0 0 2 15 0 16 32 73 5 17 7 6 93 79 6 5 3 13 19 12 17 44 18 15 10 14 21 96 94 71 60 20 21
2 5 4 5 5 5 5 80 5 5 5 5 5 4 1 0 1 4 16 48 3 21 47 99 18 91 75 18 5 87 100 96 5 14 25 27 88 100 100 100 5 0 80 46 22 2 0 0 0
5 5 10 97 85 44 5 12 91 6 5 5 46 12 11 5 5 5 5 76 15 21 43 37 73 33 6 5 5 7 100 100 70 28 69 94 45 100 36 4 0 0 0 0 0 0 0 0 0
5 4 2 5 4 5 19 15 100 71 52 90 61 20 5 18 15 67 36 56 42 83 100 100 1 30 5 6 7 10 82 100 100 55 93 71 27 4 0 0 0 0 0 0 0 0 0 0 0
3 1 0 2 0 0 0 0 4 5 5 5 5 4 3 3 0 3 72 35 94 97 100 100 2 0 13 5 5 18 89 100 100 100 85 8 5 0 0 0 0 0 0 0 0 0 0 0 0
1 1 0 0 4 0 4 4 0 0 4 0 0 3 0 0 1 1 38 44 100 100 100 100 5 6 93 2 8 66 100 100 100 100 100 11 5 0 0 0 0 0 0 0 0 0 0 0 0
24 27 75 99 100 99 55 5 0 0 0 0 0 0 0 0 0 0 0 96 35 83 100 100 10 68 50 59 100 100 100 95 7 100 100 39 6 5 4 0 0 0 0 0 0 0 0 0 10
58 64 9 4 2 2 4 4 0 0 0 0 0 0 0 0 0 0 0 0 74 90 97 94 26 100 100 91 100 100 28 5 18 12 79 5 5 5 5 5 0 0 0 0 0 5 2 0 0
92 37 26 9 4 1 4 6 6 0 0 0 0 0 0 0 0 0 0 0 12 8 100 60 98 100 96 100 100 79 6 5 24 99 62 5 5 5 5 5 3 0 3 5 5 2 0 0 0
47 31 2 0 0 0 0 0 0 0 0 0 0 0 0 0 0 0 0 0 0 15 92 100 99 94 100 89 100 100 8 5 5 75 100 59 5 5 5 5 5 5 5 5 5 5 0 0 0
1 0 0 0 0 0 0 0 0 0 0 0 0 0 0 0 0 0 0 0 0 0 2 100 100 100 100 97 100 100 18 5 5 5 17 71 44 5 5 5 5 5 5 5 5 5 0 0 0
0 0 0 0 0 0 0 0 0 0 0 0 0 0 0 0 0 0 0 0 0 0 0 37 98 100 100 81 98 100 100 5 5 10 5 21 46 10 5 5 5 5 5 4 5 5 2 0 0
0 0 0 0 0 0 0 0 0 0 0 0 0 0 0 0 0 0 0 0 0 0 0 4 62 85 100 93 94 89 100 83 74 97 7 5 5 8 5 5 5 5 5 5 5 4 5 5 3
0 3 0 0 0 0 0 0 0 0 0 0 0 0 0 0 0 0 0 0 0 0 0 0 4 92 100 100 100 100 100 100 100 100 100 34 5 5 5 5 5 5 5 5 5 5 5 5 5
5 5 4 0 1 0 4 0 0 0 0 0 0 0 0 0 0 0 0 0 0 0 0 0 22 85 84 100 100 100 100 100 100 100 100 100 82 39 5 5 5 5 5 5 89 47 7 5 19
5 5 1 0 1 5 5 1 0 0 1 0 0 0 0 0 0 0 0 0 0 0 0 0 56 94 54 67 100 100 100 100 100 100 100 100 100 100 57 8 5 5 8 24 98 84 34 16 29
4 5 4 5 1 5 4 2 0 0 2 0 0 0 0 0 0 0 0 0 0 0 0 0 94 92 46 100 100 100 100 100 100 100 100 100 100 100 100 84 54 47 62 66 66 78 58 77 99
5 8 5 5 5 5 5 5 0 0 0 0 0 0 0 0 0 0 0 0 0 0 0 0 89 100 100 100 100 100 100 100 100 100 100 100 100 100 100 100 100 100 100 100 100 100 100 100 100
5 47 40 5 28 92 5 4 0 0 0 0 0 0 0 0 0 0 0 0 0 0 4 76 60 100 100 100 100 100 100 100 100 100 100 100 100 100 100 100 100 100 100 100 100 100 100 100 100
3 6 8 44 5 38 33 1 0 4 0 5 0 0 4 4 0 0 0 0 0 0 0 91 100 100 100 100 100 100 100 100 100 100 100 100 100 100 100 100 100 100 100 100 100 100 100 100 100
19 2 5 36 96 100 100 66 0 3 5 14 0 5 5 5 11 7 0 0 0 0 6 100 100 100 100 100 100 100 100 100 100 100 100 100 100 100 100 100 100 100 100 100 100 100 100 100 100
3 5 6 62 100 100 7 100 0 5 38 64 5 5 5 20 10 5 5 0 0 0 6 100 100 100 100 100 100 85 100 100 100 100 100 100 100 100 100 100 100 100 100 100 100 100 100 100 100
4 17 18 12 70 93 92 99 0 5 23 56 80 50 81 69 78 69 19 5 3 0 40 100 100 100 100 100 100 100 100 100 100 100 100 100 100 100 100 100 100 100 100 100 100 100 100 100 100
4 54 66 37 95 77 84 42 5 28 72 16 13 99 94 95 99 100 93 100 0 5 100 100 100 100 100 100 100 100 100 100 100 100 100 100 100 100 100 100 99 93 100 100 100 100 100 100 100
5 68 99 100 87 5 23 30 99 86 73 100 85 89 61 60 94 100 81 100 0 57 100 100 100 100 100 100 100 96 100 100 100 99 100 100 100 100 100 100 99 94 100 100 100 100 100 100 100
5 92 65 84 73 100 76 73 81 21 97 98 100 100 94 69 100 98 99 100 57 80 100 100 100 100 100 100 100 100 100 100 100 100 100 100 100 100 100 100 100 100 100 100 100 100 100 100 100
13 18 57 96 88 67 66 78 20 5 42 100 74 100 100 100 100 94 100 63 76 99 100 100 100 100 100 100 100 100 100 100 100 100 100 100 100 100 100 100 100 100 100 100 100 100 100 100 100
40 39 97 98 79 100 79 66 46 80 100 100 100 100 100 100 100 100 99 90 100 100 100 100 100 100 100 100 100 100 100 100 100 100 100 100 100 100 100 100 100 100 100 100 100 100 100 100 88
76 5 99 100 84 66 98 100 96 100 100 100 100 100 100 100 96 100 100 100 100 100 100 100 100 100 100 100 100 100 100 100 100 100 100 100 100 100 100 100 100 100 100 100 100 100 100 100 100